Location: Oristano
(39.9000°N, 8.6000°E)
Time: 10:12:45
(UTC+02:00)

ISS - Visible Passes

Search period start: 08 May 2021 00:00
Search period end: 18 May 2021 00:00
Orbit: 418 x 421 km, 51.6° (Epoch: 08 May)

Date Brightness Start Highest point End Pass type
(mag) Time Alt. Az. Time Alt. Az. Time Alt. Az.
08 May -0.7 02:49:25 16° N 02:49:25 16° N 02:50:38 10° NNE visible
08 May -0.7 04:24:51 10° NNW 04:26:01 11° N 04:27:10 10° NNE visible
09 May -0.6 03:36:59 10° NNW 03:38:17 12° N 03:39:35 10° NNE visible
09 May -0.8 05:14:07 10° NNW 05:16:13 15° NNE 05:18:20 10° NE visible
10 May -0.6 02:50:23 13° NNW 02:50:34 13° N 02:52:12 10° NNE visible
10 May -0.6 04:26:52 10° NNW 04:28:32 13° N 04:30:13 10° NE visible
11 May -0.3 02:04:21 12° NNE 02:04:21 12° NNE 02:04:56 10° NNE visible
11 May -0.5 03:39:30 10° NNW 03:40:50 12° N 03:42:09 10° NNE visible
11 May -1.3 05:15:40 10° NNW 05:18:33 25° NNE 05:21:26 10° E visible
12 May -0.4 02:51:56 10° NNW 02:53:06 11° N 02:54:15 10° NNE visible
12 May -0.9 04:28:26 10° NNW 04:30:57 19° NNE 04:33:28 10° ENE visible
13 May -0.4 02:05:02 12° N 02:05:22 12° N 02:06:39 10° NNE visible
13 May -0.6 03:41:12 10° NNW 03:43:18 15° NNE 03:45:24 10° NE visible
13 May -3.1 05:17:20 10° NW 05:20:40 58° NE 05:24:00 10° ESE visible
14 May -0.3 01:18:39 12° N 01:18:39 12° N 01:19:16 10° NNE visible
14 May -0.4 02:53:56 10° NNW 02:55:36 13° N 02:57:18 10° NE visible
14 May -2.1 04:30:01 10° NW 04:33:10 36° NNE 04:36:20 10° E visible
14 May -2.1 21:13:53 10° S 21:16:03 16° SE 21:18:13 10° E visible
14 May -3.1 22:49:15 10° WSW 22:52:33 54° NW 22:55:40 11° NE visible
15 May -0.6 00:27:55 10° NW 00:29:58 15° NNW 00:31:59 10° NNE visible
15 May -0.3 02:06:35 10° NNW 02:07:54 12° N 02:09:13 10° NNE visible
15 May -1.4 03:42:44 10° NNW 03:45:37 25° NNE 03:48:31 10° E visible
15 May -3.5 05:19:18 10° WNW 05:22:33 45° SW 05:25:47 10° SSE visible
15 May -3.9 22:01:45 10° SW 22:05:06 88° SE 22:08:29 10° NE visible
15 May -0.9 23:39:51 10° WNW 23:42:17 18° NNW 23:44:45 10° NNE visible
16 May -0.2 01:19:00 10° NNW 01:20:10 11° N 01:21:18 10° NNE visible
16 May -0.9 02:55:29 10° NNW 02:58:01 19° NNE 03:00:32 10° ENE visible
16 May -3.9 04:31:48 10° NW 04:35:10 81° SW 04:38:33 10° SE visible
16 May -3.6 21:14:28 10° SSW 21:17:42 49° SE 21:20:59 10° ENE visible
16 May -1.3 22:51:51 10° W 22:54:40 24° NNW 22:57:30 10° NNE visible
17 May -0.3 00:31:10 10° NNW 00:32:25 12° N 00:33:42 10° NNE visible
17 May -0.6 02:08:15 10° NNW 02:10:21 15° NNE 02:12:28 10° NE visible
17 May -3.2 03:45:05 15° NW 03:47:43 59° NE 03:51:04 10° ESE visible
17 May -2.0 05:22:11 10° W 05:24:12 15° SW 05:26:12 10° SSW visible
17 May -1.9 22:04:00 10° W 22:07:07 34° NNW 22:10:14 10° NE visible
17 May -0.4 23:43:06 10° NW 23:44:42 13° N 23:46:19 10° NNE visible
